Flag for Canada

Past Weather in Kugluktuk, Nunavut, Canada — Yesterday and Last 2 Weeks

Now
55 °F

Passing clouds.


Feels Like: 52 °F
Forecast: 47 / 40 °F
Wind: 13 mph from Northeast

Location: Coppermine

Current Time: Jul 11, 2020 at 10:35:39 pm

Latest Report: Jul 11, 2020 at 7:00 pm


Visibility: 15 mi

Pressure: 29.82 "Hg

Humidity: 72%

Dew Point: 46 °F

Location of KugluktukLocation

Past Weather in Kugluktuk — Graph

°F

Kugluktuk Temperature Yesterday

Maximum temperature yesterday: 57 °F (at 2:00 pm)
Minimum temperature yesterday: 43 °F (at 4:00 am)
Average temperature yesterday: 51 °F

High & Low Weather Summary for the Past Weeks

 TemperatureHumidityPressure
High72 °F (Jun 29, 5:00 pm)100% (Jun 27, 2:00 am)30.22 "Hg (Jun 27, 2:00 am)
Low37 °F (Jun 27, 2:00 am)41% (Jun 29, 7:00 pm)29.57 "Hg (Jun 27, 2:00 am)
Average51 °F77%29.91 "Hg
* Reported Jun 26 7:00 pm — Jul 11 7:00 pm, Kugluktuk. Weather by CustomWeather, © 2020

Note: Actual official high and low records may vary slightly from our data, if they occured in-between our weather recording intervals... More about our weather records

Kugluktuk Weather History for the Previous 24 Hours

Scroll right to see more
 ConditionsComfort  
Time TempWeatherWind HumidityBarometerVisibility
7:00 pm
Sat, Jul 11
55 °FPassing clouds.13 mph72%29.82 "Hg15 mi
6:00 pm55 °FBroken clouds.9 mph72%29.83 "Hg15 mi
5:00 pm55 °FScattered clouds.10 mph67%29.83 "Hg15 mi
4:00 pm57 °FPassing clouds.8 mph63%29.85 "Hg15 mi
3:00 pm55 °FPassing clouds.8 mph67%29.85 "Hg15 mi
2:00 pm55 °FPassing clouds.9 mph72%29.85 "Hg15 mi
1:00 pm52 °FPassing clouds.9 mph77%29.86 "Hg15 mi
12:00 pm52 °FPassing clouds.8 mph72%29.86 "Hg15 mi
11:00 am48 °FPartly sunny.7 mph82%29.86 "Hg15 mi
10:00 am48 °FPartly sunny.3 mph76%29.87 "Hg15 mi
9:00 am45 °FBroken clouds.3 mph81%29.88 "Hg15 mi
8:00 am45 °FPartly sunny.6 mph81%29.88 "Hg15 mi
7:00 am45 °FPartly sunny.6 mph81%29.88 "Hg15 mi
6:00 am45 °FPartly sunny.8 mph81%29.88 "Hg15 mi
5:00 am46 °FPartly sunny.9 mph82%29.89 "Hg15 mi
4:00 am45 °FPartly sunny.10 mph87%29.89 "Hg15 mi
3:00 am46 °FPartly sunny.7 mph82%29.90 "Hg15 mi
2:00 am46 °FBroken clouds.5 mph87%29.90 "Hg15 mi
1:00 am46 °FBroken clouds.7 mph87%29.91 "Hg15 mi
12:00 am48 °FBroken clouds.7 mph82%29.92 "Hg15 mi
11:00 pm
Fri, Jul 10
48 °FPartly sunny.7 mph87%29.93 "Hg15 mi
10:00 pm50 °FPartly sunny.8 mph82%29.93 "Hg15 mi
Weather by CustomWeather, © 2020

See weather overview